#timestamp,LO_Frequency,Hit,StdDev 
1658379615.5,286046997.9,N
1658379635.4,286046997.8,N
1658379655.2,286047001.1,N
1658379675.0,286046995.0,N
1658379675.9,286046995.0,N
1658379695.8,286046997.0,N
1658379715.6,286046999.6,N
1658379735.5,286046999.4,N
1658379755.3,286046994.9,N
1658379775.1,286046995.7,N
1658379795.9,286046998.0,N
1658379815.7,286046995.4,N
1658379835.5,286046993.4,N
1658379855.4,286046993.6,N
1658379875.2,286046993.4,N
1658379895.1,286046995.7,N
1658379896.0,286046995.7,N
1658379915.8,286046997.1,N
1658379935.6,286046998.4,N
1658379955.5,286046998.6,N
1658379975.3,286046998.9,N
1658379995.1,286046998.2,N
1658380015.9,286047000.6,N
1658380035.7,286047000.5,N
1658380055.6,286047000.7,N
1658380075.4,286046998.9,N
1658380095.2,286046998.2,N
1658380115.1,286046996.5,N
1658380116.0,286046996.5,N
1658380135.8,286046997.0,N
1658380155.6,286047001.1,N
1658380175.5,286047000.9,N
1658380195.3,286047002.3,N
1658380215.2,286047002.4,N
1658380235.9,286046999.9,N
1658380255.7,286047000.0,N
1658380275.6,286046998.9,N
1658380295.4,286046996.6,N
1658380315.2,286046999.5,N
1658380335.1,286046997.1,N
1658380336.0,286046997.1,N
1658380355.8,286046997.7,N
1658380375.7,286046997.0,N
1658380395.5,286046997.1,N
1658380415.3,286046996.5,N
1658380435.2,286046996.9,N
1658380455.0,286046996.8,N
1658380455.9,286046996.8,N
1658380475.8,286046999.2,N
1658380495.6,286046996.6,N
1658380515.4,286046999.5,N
1658380535.3,286046998.1,N
1658380555.1,286047002.0,N
1658380575.8,286047002.3,N
1658380595.7,286047011.9,Y
1658380615.5,286047004.2,P
1658380635.4,286047000.6,N
1658380655.2,286046998.1,N
1658380675.0,286047001.1,N
1658380675.9,286047001.1,N
1658380695.8,286047002.8,N
1658380715.6,286046999.7,N
1658380735.5,286046998.3,N
1658380755.3,286047002.8,N
1658380775.1,286047002.2,N
1658380795.9,286047002.3,N
1658380815.7,286047002.2,N
1658380835.5,286047004.0,N
1658380855.4,286047002.0,N
1658380875.2,286047002.4,N
1658380895.1,286047003.5,N
1658380896.0,286047003.5,N
1658380915.8,286047003.3,N
1658380935.6,286047003.2,N
1658380955.5,286047001.8,N
1658380975.3,286047004.3,N
1658380995.1,286047002.2,N
1658381015.9,286047000.2,N
1658381035.7,286047001.2,N
1658381055.6,286046996.9,N
1658381075.4,286046999.6,N
1658381095.2,286047000.8,N
1658381115.1,286047000.9,N
1658381116.0,286047000.9,N
1658381135.8,286047002.5,N
1658381155.6,286047004.1,N
1658381175.5,286047003.2,N
1658381195.3,286047003.1,N
1658381215.2,286047003.8,N
1658381235.9,286047001.7,N
1658381255.7,286047002.6,N
1658381275.6,286047000.3,N
1658381295.4,286047000.4,N
1658381315.2,286046998.1,N
1658381335.1,286046998.5,N
1658381336.0,286046998.5,N
1658381355.8,286046997.2,N
1658381375.7,286046996.7,N
1658381395.5,286046997.1,N
1658381415.3,286047001.0,N
1658381435.2,286047002.5,N
1658381455.0,286047004.1,N
1658381455.9,286047004.1,N
1658381475.7,286047003.6,N
1658381495.6,286047002.5,N
1658381515.4,286046998.9,N
1658381535.3,286046997.7,N
1658381555.1,286046997.3,N
1658381575.8,286046996.9,N
1658381595.7,286046996.6,N
1658381615.5,286046996.7,N
1658381635.3,286046997.4,N
1658381655.2,286046997.1,N
1658381675.0,286046997.5,N
1658381675.9,286046997.5,N
1658381695.8,286046996.5,N
1658381715.6,286046998.6,N
1658381735.4,286046998.8,N
1658381755.3,286046999.5,N
1658381775.1,286046999.1,N
1658381795.9,286046996.7,N
1658381815.7,286046995.0,N
1658381835.5,286046996.0,N
1658381855.4,286046996.3,N
1658381875.2,286046995.8,N
1658381895.0,286046995.0,N
1658381895.9,286046995.0,N
1658381915.8,286046999.4,N
1658381935.6,286047000.2,N
1658381955.5,286047001.6,N
1658381975.3,286047003.9,N
1658381995.1,286047001.4,N
1658382015.9,286047003.3,N
1658382035.7,286047005.2,N
1658382055.5,286047003.4,N
1658382075.4,286047003.4,N
1658382095.2,286047003.2,N
1658382115.1,286047005.8,N
1658382116.0,286047005.8,N
1658382135.8,286047001.7,N
1658382155.6,286047003.1,N
1658382175.5,286047001.5,N
1658382195.3,286047002.1,N
1658382215.1,286047003.8,N
1658382235.9,286047001.7,N
1658382255.7,286047003.4,N
1658382275.6,286047005.5,N
1658382325.4,286047003.2,E
1658382335.3,286047003.9,N
1658382355.2,286046998.1,P
1658382375.0,286047000.3,N
1658382375.9,286047000.3,N
1658382395.8,286046999.4,N
1658382415.6,286046999.1,N
1658382435.4,286047000.4,N
1658382455.3,286047001.0,N
1658382475.1,286047000.9,N
1658382495.9,286047000.7,N
1658382515.7,286047000.3,N
1658382535.5,286047001.2,N
1658382555.4,286047000.9,N
1658382575.2,286046999.8,N
1658382595.0,286047000.2,N
1658382595.9,286047000.2,N
1658382615.8,286047002.8,N
1658382635.6,286046999.7,N
1658382655.5,286047003.9,Y
1658382675.3,286047003.9,P
1658382695.1,286047003.7,N
1658382715.9,286047003.7,N
1658382735.7,286047002.1,N
1658382755.6,286047003.9,N
1658382775.4,286047004.1,Y
1658382795.2,286047001.1,P
1658382815.1,286046996.6,P
1658382816.0,286046996.6,N
1658382835.8,286046996.8,N
1658382855.7,286046997.5,N
1658382875.5,286046995.3,N
1658382895.3,286046995.6,N
1658382915.2,286046995.4,N
1658382935.0,286046994.3,N
1658382935.9,286046994.3,N
1658382955.8,286046992.4,N
1658382975.6,286046990.6,Y
1658382995.4,286046993.8,P
1658383015.3,286046995.0,P
1658383035.1,286046998.9,N
1658383055.8,286046996.5,N
1658383075.7,286046998.2,N
1658383095.5,286047002.4,N
1658383115.4,286047002.7,N
1658383135.2,286046999.9,N
1658383155.0,286046999.9,N
1658383155.9,286046999.9,N
1658383175.8,286047000.8,N
1658383195.6,286047001.0,N
